Wind_Speed
1 1 2 2 1 1 1 2 2 2 3 3 3 4 3 3 4 4 4 4 4 4 4 4 5 5 6 6 7 7 7 6 3 1 1 1 2 3 3 3 2 4 4 4 5 2 2 5 8 8 4 4 5 2 3 3 3 5 4 4 3 4 4 6 8 7 5 3 5 4 3 7 4 2 1 1 4 4 1 3 2 4 3 3 3 1 10 20
1 1 1 2 1 1 1 2 3 3 3 3 3 3 3 4 4 4 4 4 4 4 4 4 4 5 5 6 6 7 7 5 2 2 2 2 4 3 3 2 2 4 4 4 5 4 3 3 6 6 5 3 3 3 3 2 4 4 3 4 3 6 5 6 8 6 2 1 4 3 1 4 5 4 2 1 2 3 0 3 4 6 5 1 1 7 14 18
1 1 1 1 2 2 2 1 2 3 3 3 3 3 3 4 4 4 4 4 4 4 4 4 4 5 5 5 6 7 6 4 2 2 1 2 3 2 1 2 2 3 4 4 4 4 3 1 2 4 5 4 2 3 3 4 2 2 4 3 5 6 4 4 7 6 4 3 5 3 1 1 3 2 1 2 1 1 3 5 1 4 8 4 3 9 13 14
2 1 1 0 1 2 2 1 1 3 3 2 2 3 3 4 4 4 4 4 4 4 4 4 4 5 5 5 6 6 5 5 2 1 1 1 1 2 1 2 2 4 4 5 3 3 3 2 3 5 4 3 4 4 3 3 1 2 4 3 5 4 2 3 6 6 4 4 5 4 2 0 3 2 1 5 4 4 7 7 7 9 9 8 6 9 13 14
2 1 1 0 1 1 2 1 1 2 3 3 1 2 2 3 3 3 3 3 4 3 3 4 4 5 5 5 5 6 5 5 2 1 2 0 2 3 3 3 3 4 5 5 3 2 3 3 6 6 5 2 5 5 2 3 2 3 1 3 4 3 1 2 5 5 4 4 5 5 4 3 1 1 2 7 6 6 6 6 8 9 8 10 10 11 12 12
3 2 1 1 1 2 2 2 2 2 3 3 2 1 2 2 2 2 3 3 3 3 3 3 4 4 5 5 5 4 4 1 3 0 1 2 3 3 3 3 4 4 5 4 4 3 3 5 6 4 3 3 3 3 1 4 2 3 1 1 3 3 0 0 2 4 5 7 6 5 3 1 2 2 2 7 9 8 5 4 6 7 7 11 11 12 11 11
3 2 2 1 1 2 3 2 3 3 3 3 3 1 1 1 2 2 2 2 2 2 2 3 4 4 4 4 4 5 4 2 2 2 2 3 3 3 4 3 4 5 4 4 5 4 4 7 6 3 4 4 1 2 1 5 4 6 1 1 2 4 2 1 1 3 5 6 5 4 2 2 3 3 1 4 11 8 4 4 5 6 7 11 10 11 12 13
4 3 2 1 1 2 2 2 3 3 3 4 4 2 1 2 2 2 1 1 1 1 2 2 3 3 4 3 2 5 2 3 1 4 3 4 4 3 3 4 5 5 5 8 6 3 4 6 4 3 4 2 3 2 3 3 5 5 2 2 1 1 3 2 3 4 4 3 2 4 2 2 5 3 1 8 12 7 4 2 1 2 6 9 9 10 10 12
4 4 3 2 2 2 2 2 2 3 3 3 4 3 2 2 2 2 2 1 1 0 1 1 2 3 3 3 5 3 3 2 2 4 3 4 4 4 3 5 6 5 7 9 6 3 3 2 3 3 4 2 4 2 3 2 1 1 3 1 1 2 5 2 3 5 3 1 2 3 2 4 2 1 4 10 8 4 1 4 4 5 7 7 8 9 10 10
3 3 3 3 3 2 2 2 2 2 3 3 4 4 3 2 3 2 3 2 1 1 0 1 2 2 2 3 6 1 4 2 2 5 4 4 3 3 4 6 6 6 7 8 8 7 4 4 4 4 6 3 3 2 2 2 2 2 4 3 3 3 5 3 2 4 3 0 2 3 4 5 3 1 5 6 3 1 2 3 2 3 6 7 6 7 9 10
3 2 1 2 2 2 2 3 3 3 3 4 5 4 3 2 3 3 3 2 2 2 1 1 1 1 2 4 5 3 3 2 3 4 4 4 3 2 5 6 6 6 6 7 8 7 4 5 6 4 2 1 2 3 2 1 2 2 3 3 4 5 4 4 3 4 2 1 3 4 2 5 4 1 6 3 3 1 2 2 2 3 5 6 6 6 7 10
2 3 4 3 2 2 2 3 4 4 5 5 5 5 4 2 2 2 3 3 2 2 1 2 2 1 2 4 3 4 3 2 3 4 4 4 3 3 5 6 6 6 5 6 5 6 5 3 6 5 0 2 2 2 1 1 2 2 2 1 6 8 4 3 2 3 1 1 3 4 2 6 3 7 7 2 2 2 2 4 4 5 6 5 6 5 6 10
2 2 4 5 5 5 4 4 4 4 5 5 5 5 3 1 1 2 3 3 3 3 2 2 2 1 3 1 2 3 3 2 3 4 4 3 3 3 5 5 6 7 6 8 6 6 6 2 6 6 2 4 2 1 3 4 3 1 3 2 3 7 5 3 2 1 2 2 1 3 2 6 8 12 6 2 2 3 1 6 5 5 5 5 6 5 6 9
3 2 3 4 5 6 6 6 6 6 6 6 6 5 2 1 2 2 3 3 3 3 2 3 2 2 3 2 3 2 4 3 3 4 4 4 4 4 5 5 6 8 8 9 8 8 7 5 8 7 3 4 2 1 4 6 4 1 1 2 2 2 4 5 1 3 5 1 2 4 2 6 10 11 5 3 3 5 6 8 6 6 5 5 6 6 7 9
3 3 3 4 4 5 6 7 8 8 7 7 7 5 1 2 2 2 3 3 4 4 3 4 2 3 3 3 3 2 3 3 3 4 4 4 4 4 5 5 6 8 9 9 9 9 8 5 7 6 1 2 3 4 4 4 4 3 0 2 3 1 5 8 2 4 4 1 3 5 3 7 10 10 6 3 2 4 7 8 6 7 7 6 6 7 7 8
4 3 3 3 4 5 5 6 7 8 7 7 7 4 1 2 3 3 3 4 4 4 4 4 3 4 2 2 1 2 2 2 3 5 5 4 5 5 6 7 6 7 8 7 7 7 9 7 5 3 1 2 5 5 4 4 4 4 1 2 2 1 3 6 2 2 0 1 1 1 3 4 5 7 6 3 2 3 5 8 8 8 8 7 6 7 7 8
4 4 4 4 4 4 5 6 6 7 7 6 5 2 2 2 3 4 5 7 6 5 5 4 4 4 1 1 2 3 1 3 5 6 6 5 5 6 7 6 6 7 7 7 5 4 8 7 1 1 3 3 3 4 3 2 4 4 2 1 3 2 2 3 3 3 1 2 2 2 3 7 7 7 7 3 3 3 6 10 9 8 7 7 7 7 8 8
5 5 4 4 4 4 5 6 7 7 6 4 2 3 4 4 4 5 7 9 8 6 5 2 4 3 2 2 2 2 2 4 6 7 7 6 6 7 7 5 5 6 6 5 5 4 4 4 2 2 3 3 2 5 3 4 4 3 2 1 2 2 2 3 4 2 2 1 3 3 4 11 13 11 10 6 5 5 9 10 8 7 7 7 7 8 9 9
6 6 5 4 4 4 5 6 7 6 5 3 3 6 7 5 4 4 5 5 4 3 1 3 3 4 4 3 1 3 5 6 7 6 6 8 7 8 9 7 6 6 5 1 2 3 2 3 4 2 1 2 4 6 7 7 6 5 5 4 4 3 3 5 5 5 2 1 4 7 7 11 12 11 11 8 5 6 10 9 8 8 7 8 8 9 10 10
7 6 6 5 4 4 5 6 7 6 4 1 5 6 4 3 4 2 1 0 3 4 2 3 3 3 0 2 1 6 7 5 4 3 6 8 9 9 7 6 6 6 3 3 1 2 2 2 1 5 6 7 8 6 5 5 6 6 5 4 4 4 4 5 3 5 2 2 6 7 7 11 11 11 12 8 2 5 10 10 10 10 9 9 10 11 11 12
8 7 7 6 5 4 4 6 7 6 4 1 4 3 2 4 3 1 3 4 6 4 1 1 0 0 1 0 4 6 5 3 3 2 7 7 8 7 1 4 5 3 1 3 2 2 4 3 7 9 8 7 5 5 7 5 5 5 4 1 2 3 5 6 2 4 1 3 5 3 4 11 12 12 12 7 4 8 11 11 13 13 12 11 11 13 12 11
11 9 8 7 5 4 4 5 6 6 5 3 4 2 1 3 3 1 2 1 7 5 4 1 2 3 2 1 5 4 3 3 1 1 7 6 4 4 1 4 5 3 1 2 2 3 3 4 11 7 6 6 4 6 7 5 5 4 3 1 3 3 4 6 3 5 2 3 4 5 4 10 12 12 12 10 10 11 11 11 12 12 12 12 11 12 12 10
15 12 9 8 6 4 4 5 6 7 4 3 4 3 1 2 4 2 3 1 5 3 3 4 3 4 2 1 6 5 2 3 3 4 8 7 2 3 4 5 5 4 2 4 5 4 2 6 9 5 9 7 5 4 7 5 3 2 3 3 3 3 1 4 4 4 2 1 2 4 5 9 11 11 12 12 10 9 10 11 12 12 13 15 12 9 10 12
17 16 12 9 8 6 5 5 6 7 6 6 8 8 3 3 5 2 2 1 3 4 2 5 4 5 5 3 8 9 2 3 5 5 10 9 4 3 5 5 5 5 4 7 7 5 5 6 2 5 7 8 6 4 6 5 2 3 5 5 4 5 5 5 4 4 3 3 2 3 6 7 7 8 10 7 5 6 8 9 12 13 13 13 10 9 10 11
16 17 15 13 9 8 7 5 6 8 7 7 10 11 8 6 5 4 2 3 3 5 3 3 2 5 8 6 9 9 1 2 4 6 12 12 8 4 2 3 4 4 6 5 6 4 7 5 4 6 3 6 7 4 6 7 4 4 5 9 10 8 6 3 3 5 4 4 3 4 3 6 5 6 9 6 5 8 6 6 12 13 10 9 9 12 12 10
13 16 18 16 13 12 9 4 7 7 5 6 9 11 11 9 7 6 4 4 3 5 1 3 3 7 10 7 8 6 2 4 4 5 12 13 8 5 3 1 2 4 6 5 3 3 4 1 5 6 5 6 6 4 6 7 5 2 5 8 10 6 4 3 1 2 1 4 3 2 1 6 7 7 10 7 7 11 9 9 13 12 9 8 9 10 9 9
9 13 18 19 17 17 10 3 5 5 3 6 7 13 14 11 8 5 3 3 4 4 4 2 1 6 9 8 10 7 3 5 1 4 7 9 5 4 3 4 2 2 3 4 1 3 4 2 4 6 6 5 6 4 6 8 7 3 4 5 6 6 6 5 5 3 3 3 3 2 4 3 7 8 7 5 7 11 12 13 14 12 11 10 9 10 9 8
6 9 14 20 22 21 14 7 7 8 4 5 5 16 16 11 8 4 4 0 4 2 4 2 1 4 3 5 8 5 2 2 4 2 1 5 4 4 3 7 6 6 4 5 4 4 4 6 6 6 5 4 6 5 7 11 6 4 2 6 6 6 5 5 5 2 1 3 4 1 4 2 7 7 5 3 4 9 12 15 14 12 11 10 10 9 8 7
5 5 10 19 24 24 21 14 8 7 4 2 7 18 16 10 5 4 4 3 2 1 2 2 3 2 3 3 4 2 2 2 2 3 2 4 2 4 3 7 6 6 2 3 5 3 1 5 7 7 5 6 4 2 6 9 4 4 6 7 6 6 5 5 4 3 4 3 7 6 6 3 6 5 3 2 2 8 12 12 11 10 10 9 8 8 6 5
4 4 5 15 24 25 22 17 13 7 2 1 10 19 15 6 3 4 3 4 1 1 1 2 3 2 6 7 2 1 2 2 0 1 3 1 2 6 2 3 6 5 0 3 2 3 1 1 3 3 4 5 4 3 1 4 5 6 6 6 7 6 5 4 2 3 3 5 8 6 10 7 4 5 4 3 4 7 9 8 7 8 8 8 6 6 6 5
4 3 3 11 24 27 17 12 18 16 5 4 10 14 10 3 3 5 6 2 0 1 2 2 2 5 11 13 6 2 2 1 1 4 3 1 2 4 1 1 4 4 3 4 4 3 3 1 1 2 2 4 7 5 4 3 4 5 4 5 4 3 4 4 4 4 1 6 5 1 6 7 5 6 5 6 7 7 7 7 8 9 8 7 6 5 5 5
5 4 4 8 20 28 20 11 19 22 11 9 10 5 3 2 1 6 5 1 0 4 5 4 4 6 11 11 7 6 5 2 2 5 5 4 4 5 5 5 5 2 2 7 4 3 2 4 3 2 1 4 6 5 5 4 2 4 4 6 4 2 3 3 3 0 3 7 4 1 1 3 7 9 8 10 14 11 9 9 9 10 10 8 7 6 5 4
7 6 7 8 14 25 26 16 17 21 16 17 13 3 1 4 7 9 7 3 2 2 3 3 3 6 10 8 5 4 4 1 4 3 2 4 5 6 5 4 6 3 2 5 3 0 3 5 2 1 2 3 7 6 3 1 3 4 5 6 4 2 1 3 3 1 4 6 3 2 1 2 5 7 10 16 18 13 9 10 10 10 10 10 9 7 7 6
10 8 9 12 13 17 25 23 17 18 20 19 10 4 3 5 6 10 13 9 3 3 2 2 5 6 9 5 4 6 4 3 6 5 3 5 5 6 5 6 6 2 3 3 3 5 5 6 5 7 3 6 10 8 6 6 5 5 4 5 5 5 5 4 3 3 4 4 3 3 2 3 4 4 7 12 12 9 8 8 8 8 9 7 8 9 9 9
11 10 10 13 15 14 19 23 21 21 23 15 5 6 9 7 4 6 10 7 2 3 4 2 6 6 5 2 2 6 5 3 6 5 4 6 6 8 7 8 10 5 4 4 2 3 5 7 6 3 1 10 11 5 5 7 3 2 2 4 3 5 5 1 2 5 3 2 3 2 4 5 5 6 8 8 8 9 8 6 6 9 7 3 6 9 9 8
11 11 10 10 14 15 16 19 22 26 22 10 4 6 8 8 5 5 5 2 2 3 4 2 5 4 5 2 2 5 1 2 5 4 3 4 4 6 7 8 12 12 9 7 3 2 3 5 5 3 2 5 6 2 4 3 3 2 3 4 4 3 6 3 1 1 4 1 4 2 5 5 3 7 10 8 10 11 8 6 7 9 5 3 7 9 8 8
13 12 8 9 12 15 16 18 25 28 17 7 6 8 6 6 4 4 4 2 2 5 6 2 2 5 6 4 3 6 3 2 4 4 4 3 3 6 8 6 9 16 15 10 4 3 5 4 4 1 1 2 1 2 3 3 3 5 4 6 2 2 3 3 1 2 3 2 5 2 6 5 2 5 6 2 7 12 12 10 10 9 5 6 9 9 9 7
13 11 9 12 14 14 15 20 28 22 9 4 7 7 6 6 6 6 4 3 3 5 5 6 5 4 6 6 5 7 6 4 5 6 4 4 4 7 11 6 5 15 17 9 3 3 4 3 5 2 2 3 4 3 1 4 2 5 4 4 4 2 2 2 2 2 1 3 4 4 5 4 5 6 3 2 8 10 11 10 10 9 7 8 9 9 9 6
10 6 6 7 9 14 17 23 24 13 4 6 7 6 6 9 10 7 5 3 4 5 6 7 4 2 4 6 5 6 7 7 8 7 5 5 5 6 12 9 6 12 15 11 6 2 3 4 4 2 1 1 3 2 5 2 2 3 2 2 3 2 4 3 3 3 3 3 3 4 5 4 7 7 7 10 11 9 9 9 7 8 8 8 8 7 7 5
4 2 3 2 5 16 22 23 15 5 4 6 7 6 5 6 7 6 6 4 2 2 3 4 3 4 5 6 3 4 6 7 8 7 5 7 6 5 9 11 6 7 11 12 8 1 3 4 4 3 4 0 2 4 8 9 6 4 4 5 3 1 2 1 1 2 4 3 2 2 6 7 5 5 9 12 11 11 11 9 7 8 8 8 7 7 6 5
1 2 3 3 10 21 23 16 6 2 4 4 6 7 5 3 3 5 7 4 1 1 1 0 3 3 5 6 3 3 6 5 6 6 4 6 7 5 7 11 9 7 7 8 7 5 3 4 4 2 0 3 4 3 4 7 8 7 6 8 9 6 4 3 3 2 2 2 4 3 6 10 5 5 8 9 9 10 10 8 7 7 8 7 7 7 6 5
2 3 2 3 16 26 16 5 4 4 4 4 7 7 3 1 3 5 7 5 3 3 1 1 4 4 3 6 5 5 7 5 6 7 5 8 11 9 6 8 11 13 11 8 11 9 4 4 4 3 4 6 4 2 1 4 3 2 3 5 6 6 6 6 5 4 2 1 2 3 3 9 4 4 7 7 6 6 5 6 7 7 7 7 7 6 5 5
3 5 5 8 15 26 12 4 6 5 4 5 6 6 2 1 1 4 6 7 6 4 2 3 4 3 4 3 4 6 7 6 8 9 7 7 11 11 6 7 11 13 10 6 7 4 2 3 3 2 3 3 4 4 2 2 2 2 5 4 4 6 6 4 3 4 4 4 3 3 4 9 4 2 4 5 5 4 4 6 8 7 7 7 7 6 5 6
2 3 6 10 13 18 9 5 7 6 6 5 6 6 4 3 3 5 6 9 9 6 7 8 5 4 4 2 2 5 8 7 7 11 9 6 7 7 7 12 12 11 9 7 7 7 4 4 5 2 1 3 4 3 2 1 3 4 4 4 5 8 6 3 1 2 1 7 8 5 7 9 4 3 3 3 4 5 6 6 6 6 7 6 6 6 6 6
1 2 3 6 10 10 5 4 6 7 8 9 8 7 7 5 5 7 7 8 8 6 6 8 7 4 2 2 0 2 5 7 6 8 7 5 5 3 5 13 13 11 10 7 8 9 7 6 7 7 7 7 6 6 5 4 3 2 4 7 9 10 11 7 2 2 5 8 8 7 10 9 3 4 4 2 2 5 7 6 4 5 8 7 6 7 5 3
1 2 2 3 5 6 5 5 6 6 6 9 8 7 11 9 5 7 8 6 7 8 7 6 4 3 1 4 5 4 6 7 5 3 5 6 4 2 4 10 12 13 11 4 6 6 4 5 10 12 13 12 12 10 5 6 7 6 10 12 11 11 12 9 4 5 9 5 4 11 15 12 7 4 5 6 5 6 7 5 4 6 8 8 7 8 5 3
3 4 3 2 2 4 6 6 7 7 6 8 6 5 11 14 7 6 9 8 8 10 8 5 5 7 8 10 9 7 8 7 5 4 6 6 4 3 2 5 9 15 13 5 4 5 3 4 11 15 16 16 17 14 8 10 11 14 15 14 13 12 12 12 11 14 10 4 9 17 13 14 16 9 8 9 6 6 7 7 7 7 8 8 8 7 5 5
3 3 2 2 2 3 6 6 7 9 10 9 5 4 10 14 11 8 7 6 8 9 7 6 8 12 13 14 11 8 10 9 8 8 9 7 4 2 2 1 6 11 10 5 4 4 3 5 9 13 15 17 18 13 9 10 11 13 16 18 17 16 16 16 19 23 15 9 17 17 10 15 22 13 11 11 8 8 9 9 7 5 5 8 8 8 7 8
3 2 2 2 2 3 3 2 2 6 12 12 7 7 10 12 14 11 7 6 7 9 10 9 11 15 15 14 12 9 10 10 10 11 11 8 4 2 2 4 5 6 7 6 5 3 4 5 7 11 12 15 18 14 10 11 10 9 13 17 18 18 20 22 24 27 22 16 21 19 11 17 19 9 11 12 9 9 7 5 6 6 7 10 10 9 9 10
4 2 1 0 1 3 5 4 2 3 7 10 8 8 10 11 13 10 8 9 8 8 12 15 15 16 16 15 14 14 15 14 14 15 13 11 9 6 6 6 2 2 4 6 3 1 4 6 5 7 7 10 17 18 13 11 10 10 9 11 15 17 22 25 25 22 17 16 23 21 16 19 12 7 9 9 7 7 7 7 10 10 10 11 10 11 11 10
8 3 1 1 1 4 5 4 4 4 4 5 5 6 10 12 13 10 8 11 13 10 13 19 20 15 13 16 17 17 18 17 18 19 16 14 11 6 5 4 3 3 3 4 1 0 3 3 0 2 5 10 16 18 11 6 5 8 8 10 16 19 20 21 18 15 15 18 21 18 15 18 8 8 8 8 7 8 9 11 12 10 10 11 10 11 11 10
11 7 3 1 2 5 4 3 4 5 5 6 6 7 8 9 9 9 7 8 13 14 12 17 20 14 12 16 20 21 22 20 21 19 10 5 5 3 2 3 5 5 5 4 2 1 4 4 2 3 6 11 14 9 4 5 2 7 12 17 21 22 18 13 11 16 19 18 16 14 16 19 10 6 7 7 7 9 12 11 11 11 10 9 9 10 11 11
Wind_Direction
44 31 24 15 323 320 6 359 333 276 246 234 231 235 241 248 254 253 250 250 253 266 288 298 308 314 324 333 335 342 340 337 338 323 334 275 288 324 341 1 27 8 3 352 2 29 17 13 4 17 62 47 14 343 15 20 53 56 77 96 144 176 197 186 178 193 172 194 216 231 184 143 173 226 191 46 36 42 1 330 316 316 288 222 293 302 155 159
158 114 42 13 345 329 347 7 357 321 271 247 233 231 237 239 249 252 247 253 257 270 293 298 308 315 328 338 337 344 339 337 343 312 314 281 277 292 324 8 21 5 10 20 29 50 62 343 344 26 54 43 349 352 31 8 57 86 106 101 197 195 202 194 175 186 169 156 185 190 154 158 187 173 138 202 313 11 11 290 340 328 291 262 84 144 151 158
187 157 101 22 7 347 335 331 2 347 313 269 238 227 228 235 247 253 254 259 264 275 293 301 310 323 334 340 344 346 345 3 0 312 311 291 270 252 289 34 34 20 24 32 37 44 69 259 354 50 53 52 356 4 42 10 37 135 107 97 233 209 219 215 180 190 199 151 147 173 149 179 233 169 149 190 190 349 218 230 253 273 255 221 169 157 158 164
202 190 174 43 10 349 333 324 1 352 341 318 251 231 223 231 244 256 264 266 275 282 293 307 316 331 338 343 350 344 4 39 351 291 60 343 208 174 135 80 54 39 25 27 42 32 52 98 63 60 66 49 338 17 53 348 351 117 105 160 220 182 199 214 190 201 201 161 143 151 118 220 250 173 151 148 142 277 247 224 203 219 222 196 193 179 173 174
210 205 179 159 8 348 335 316 327 342 338 334 286 229 210 224 234 252 266 269 281 285 298 313 320 337 343 351 352 341 20 48 301 301 51 100 140 141 117 82 54 38 23 26 38 49 57 68 59 47 55 49 347 28 44 311 71 74 56 187 191 147 126 213 190 182 163 132 116 121 146 201 204 130 154 153 180 241 232 228 217 218 202 179 183 180 179 184
212 203 179 165 17 350 342 318 311 328 320 327 325 252 214 218 211 228 247 263 279 286 307 314 327 341 347 354 348 359 63 80 284 354 82 136 133 136 103 65 44 27 15 30 31 61 57 37 55 51 46 56 11 56 30 308 49 94 345 294 206 195 178 318 183 170 133 119 138 155 181 149 95 276 193 171 218 227 213 242 238 244 213 177 168 168 178 190
204 196 188 187 17 349 347 338 326 325 321 327 324 287 251 242 211 217 227 251 273 292 319 315 330 341 355 358 352 31 84 248 285 144 150 133 135 117 80 43 31 17 16 39 26 72 75 42 69 122 81 68 139 96 348 315 37 89 106 310 213 204 241 332 93 145 122 128 175 171 127 117 171 232 42 212 240 240 252 277 254 252 199 168 160 173 188 195
205 207 206 222 310 322 340 343 339 333 327 327 323 309 280 256 217 204 196 234 271 318 327 315 336 353 0 9 44 30 6 271 233 157 156 140 133 85 64 37 38 30 48 46 29 115 96 58 106 158 83 77 158 95 340 344 35 66 137 236 175 201 275 305 82 89 102 132 154 118 128 216 199 195 332 248 248 260 283 342 57 147 149 164 173 186 193 197
211 218 223 243 265 291 314 337 345 331 326 325 325 316 284 235 199 179 166 192 206 296 327 333 342 4 12 55 83 41 289 277 188 169 160 155 126 70 45 42 47 41 55 45 36 84 87 117 181 186 140 147 127 69 342 48 41 121 132 194 80 339 318 334 91 62 52 109 100 121 251 289 242 223 275 256 252 266 314 48 58 116 146 183 189 193 194 197
241 232 224 237 256 284 297 318 334 333 333 329 325 309 281 227 193 174 163 174 161 159 351 11 358 23 35 70 85 88 278 323 205 185 164 162 131 74 40 43 48 52 64 51 47 56 65 166 178 156 137 122 103 65 351 83 145 135 103 104 70 345 326 8 38 18 10 246 130 170 254 290 333 316 257 271 311 7 87 54 19 148 181 204 200 206 203 207
311 342 285 251 264 285 290 305 315 333 339 339 334 314 292 252 199 172 159 159 151 138 114 84 41 35 62 83 109 194 276 347 208 189 172 169 131 69 46 47 49 66 80 61 55 50 59 150 145 129 120 100 101 39 4 117 116 93 110 118 15 350 339 8 354 331 339 198 155 144 254 297 0 275 237 280 359 13 147 202 262 209 225 226 220 227 215 222
320 5 0 339 319 317 312 292 301 326 330 338 337 326 321 281 193 159 156 151 146 126 118 100 68 73 65 69 137 216 277 323 216 190 179 172 125 77 55 53 51 65 90 82 70 49 55 135 116 90 24 142 120 32 86 107 73 51 80 141 326 357 4 329 328 316 339 176 177 123 331 296 256 230 245 326 358 37 135 223 253 239 248 250 241 247 233 234
321 359 355 349 348 354 354 321 311 318 317 327 334 335 338 315 143 146 163 156 145 125 118 103 73 81 78 53 226 231 276 285 222 193 176 166 131 88 67 67 65 69 89 95 84 54 59 120 103 101 124 107 114 171 108 51 49 6 40 84 335 2 345 300 33 9 151 163 200 115 277 277 253 248 267 347 149 111 206 243 248 244 253 254 247 252 248 242
316 335 341 343 349 359 3 350 338 332 323 328 341 349 0 91 138 159 162 156 146 131 120 105 91 87 88 239 256 304 277 259 210 194 180 173 145 108 87 80 81 84 87 87 78 61 71 100 93 96 96 85 116 89 43 12 26 37 21 58 24 10 284 294 358 133 149 177 43 103 221 268 269 267 292 315 178 155 225 246 246 245 251 253 251 251 252 247
307 316 327 335 345 354 360 358 354 350 345 343 352 2 63 126 146 153 147 149 133 121 122 111 108 97 69 284 279 337 278 230 192 190 180 174 152 126 104 96 93 90 86 82 77 65 66 85 76 70 21 27 65 64 27 354 16 32 354 310 351 133 271 304 303 156 142 350 49 106 221 272 271 272 311 323 195 178 232 251 255 250 247 246 251 248 252 258
292 304 310 315 335 345 347 355 358 354 353 353 353 1 97 125 133 132 134 127 113 110 108 100 99 102 87 283 292 326 276 184 173 176 172 166 151 134 116 105 91 85 88 80 79 66 48 54 61 56 112 54 67 80 45 13 352 358 63 241 278 153 283 315 327 242 161 51 24 160 229 273 277 279 322 351 177 198 250 262 258 248 247 243 245 247 249 260
272 286 299 300 317 328 333 345 350 350 354 358 357 15 81 97 118 124 123 111 103 95 90 103 103 94 91 256 256 281 239 156 163 162 159 147 133 131 119 99 78 79 84 69 65 49 28 39 73 345 46 55 79 94 60 348 292 319 24 234 244 199 226 297 312 294 34 85 219 228 230 253 268 281 303 306 174 196 244 256 257 249 249 244 243 249 247 248
267 271 282 291 300 308 321 331 336 341 351 2 20 88 93 92 106 120 127 117 98 75 66 80 83 76 266 248 211 231 114 135 150 146 142 134 126 124 111 93 82 69 53 38 36 33 17 26 60 41 24 15 57 101 140 222 213 209 195 176 260 242 211 255 280 251 109 70 229 223 249 258 267 278 282 265 177 194 240 250 260 261 251 248 245 244 243 243
267 268 267 278 289 297 307 315 322 331 344 13 100 115 103 89 89 113 126 120 113 103 168 224 135 138 221 249 200 105 98 120 138 142 134 128 126 111 94 82 79 70 65 54 355 20 49 48 59 95 224 229 192 168 184 198 165 161 175 151 176 223 247 236 249 264 210 157 239 227 239 258 263 269 275 269 181 202 251 260 265 264 252 248 244 242 242 238
263 266 262 263 267 283 296 305 316 323 334 47 132 122 112 90 55 17 306 242 196 160 138 231 194 146 168 318 109 117 108 101 112 144 138 138 135 112 75 43 45 51 83 163 240 7 85 105 188 215 210 203 204 187 158 150 125 117 124 127 174 199 268 255 245 292 260 170 251 235 238 263 266 264 268 271 208 228 257 261 260 256 250 246 241 242 240 236
251 260 262 256 255 270 281 299 313 319 323 202 159 135 164 155 103 293 266 273 251 212 139 323 41 152 287 245 166 145 119 70 43 127 147 151 143 133 43 22 71 55 295 173 153 19 70 147 231 228 204 190 182 143 119 108 85 86 124 148 269 207 251 258 232 303 303 177 267 291 274 269 267 267 268 263 242 245 245 245 252 250 246 245 241 243 242 243
243 248 257 254 248 256 270 291 301 303 303 226 189 183 202 173 140 127 128 270 273 234 189 237 351 289 271 201 191 168 71 72 31 240 166 143 124 168 199 65 120 173 280 118 107 25 47 228 244 225 151 112 91 115 118 107 88 75 109 128 281 254 270 282 302 336 354 180 273 336 315 274 269 268 266 254 240 244 242 238 247 248 248 246 239 241 244 251
246 239 245 252 241 235 258 275 283 291 281 232 209 191 188 158 137 86 89 109 294 281 179 200 234 244 251 271 203 173 101 158 180 240 188 147 102 176 136 102 132 137 132 172 157 131 141 249 253 191 142 122 83 98 110 103 100 117 137 152 255 262 274 282 301 336 2 156 277 319 306 277 271 268 263 255 247 256 257 251 252 246 245 248 246 243 238 242
249 242 237 240 235 219 230 262 278 277 256 245 232 208 177 144 146 126 71 62 295 294 237 205 201 198 200 211 183 168 164 189 172 205 184 154 123 154 151 138 125 125 189 192 164 173 219 243 238 115 144 144 115 118 132 141 231 240 188 181 221 237 218 234 290 324 343 12 14 343 312 284 274 270 266 278 311 292 265 255 260 251 244 251 260 258 239 235
246 246 239 232 229 211 201 229 260 256 247 250 235 209 174 155 154 147 96 35 290 295 305 215 197 204 196 165 164 165 129 236 217 196 176 161 144 138 164 140 122 178 202 160 143 217 250 238 121 105 129 139 132 164 179 167 200 275 230 202 214 224 220 239 347 6 359 336 348 24 319 284 299 281 264 289 329 296 269 247 259 260 254 248 253 255 245 239
244 244 240 234 222 198 182 210 250 241 236 250 232 195 171 165 156 148 109 44 288 277 285 180 173 194 188 155 153 141 77 261 252 164 164 169 157 119 140 143 75 198 186 137 145 227 246 258 92 121 142 144 150 203 223 174 143 282 248 206 211 205 190 200 105 52 309 267 288 66 179 274 302 280 263 277 285 277 277 267 263 267 265 247 241 250 248 241
251 242 239 235 218 192 175 191 223 193 206 273 230 181 173 165 152 144 90 24 279 217 154 197 183 169 178 168 156 137 190 242 124 128 163 170 172 78 127 173 108 193 167 121 216 248 187 154 75 112 116 130 164 216 224 164 132 241 246 165 170 174 187 190 156 176 238 268 303 67 132 257 286 273 274 288 280 280 281 274 270 267 262 256 250 249 247 240
269 247 233 230 220 206 202 201 177 172 214 299 190 175 172 160 153 120 93 169 277 156 142 236 166 138 140 165 156 130 210 212 119 198 250 135 168 57 119 192 172 180 175 143 211 262 162 173 177 156 130 156 190 218 191 154 143 245 206 122 136 150 162 140 125 167 352 357 294 225 134 232 268 271 308 330 276 277 274 267 269 272 267 262 258 255 255 247
294 275 236 227 223 217 215 215 194 188 237 306 169 174 168 161 157 77 93 203 269 137 144 114 136 123 63 141 180 87 53 37 126 237 11 102 146 54 147 197 149 153 186 152 203 257 120 194 194 160 155 194 204 251 186 162 170 202 128 96 80 78 81 83 103 119 53 336 257 209 159 217 268 262 292 349 238 252 261 263 266 273 273 265 263 268 273 267
311 318 260 222 213 206 205 214 217 210 238 207 178 173 162 152 127 111 178 221 228 222 196 120 169 168 127 145 212 334 91 27 13 81 43 97 27 32 129 156 90 117 10 352 254 252 314 263 200 162 176 183 133 69 150 148 142 140 109 71 53 41 40 52 56 77 67 281 265 204 177 194 271 269 225 217 219 225 242 264 276 281 285 277 271 275 274 271
306 311 274 214 206 201 195 211 215 208 204 181 170 162 153 95 71 165 201 226 16 193 146 150 181 143 150 164 184 194 132 35 170 139 121 158 68 43 81 110 71 70 0 310 288 308 335 345 244 232 175 125 97 70 26 53 109 110 90 82 72 357 9 24 357 44 126 254 281 255 180 179 234 257 235 247 262 242 227 245 264 273 281 281 276 273 268 261
303 277 265 225 214 208 205 215 214 211 205 167 152 135 148 142 157 213 211 82 273 208 170 181 199 172 169 173 177 171 145 99 182 164 149 151 164 178 189 183 160 95 286 242 250 338 289 231 260 310 200 140 114 85 35 15 46 85 101 110 103 337 354 345 305 73 220 255 284 333 186 188 237 253 255 262 266 253 230 228 239 252 265 275 278 272 267 256
315 278 257 245 229 217 215 218 216 212 192 159 150 92 52 178 193 208 206 187 217 222 165 153 155 161 159 162 185 164 123 151 181 174 149 136 170 207 236 224 185 154 200 202 187 204 274 290 286 167 253 182 154 152 143 199 188 157 149 142 137 138 166 254 265 271 261 270 283 259 243 251 265 266 244 243 252 250 240 239 238 244 255 267 283 288 280 266
319 299 271 251 244 234 223 217 217 204 175 156 154 133 150 201 205 199 207 218 232 17 32 101 96 130 155 164 198 163 139 224 180 151 145 138 160 212 236 239 215 142 97 146 168 182 219 279 216 178 204 185 181 188 162 141 162 185 157 137 160 168 171 211 219 213 246 282 305 278 230 194 209 254 236 234 257 268 259 259 258 257 253 259 286 290 280 270
314 312 300 261 247 247 228 217 216 195 167 151 161 167 174 201 214 205 215 222 230 26 12 40 85 119 187 273 280 176 160 221 180 143 159 167 184 203 199 208 201 166 137 180 218 167 202 262 244 228 209 169 181 196 120 111 141 215 115 114 198 195 155 157 201 177 180 312 308 252 228 213 210 272 272 247 265 271 257 264 273 265 257 253 276 274 272 271
318 317 310 271 247 240 226 216 204 183 163 145 170 185 193 206 188 188 212 211 181 125 81 44 77 122 208 252 275 220 176 95 155 150 191 203 221 208 199 210 197 184 182 187 199 147 178 273 286 339 351 170 181 183 123 136 175 162 143 180 218 177 123 108 245 88 78 264 271 222 245 284 313 286 272 250 258 267 261 260 257 257 258 257 263 261 264 268
329 325 301 268 250 233 223 211 189 173 162 155 184 189 204 220 190 169 187 175 168 141 125 188 183 157 192 199 210 215 200 93 151 171 193 200 244 211 204 229 199 194 201 193 207 196 166 253 300 76 179 278 322 117 74 24 128 136 186 204 175 87 94 106 208 345 44 240 270 253 243 276 305 274 289 273 251 262 264 257 254 259 254 248 259 258 263 267
330 325 290 271 253 227 217 204 184 170 162 177 199 205 198 215 216 189 170 129 134 155 176 216 209 163 179 194 203 192 183 178 174 185 187 188 241 209 190 210 205 202 207 192 216 244 159 222 306 48 175 299 4 104 96 352 69 140 189 179 119 141 199 114 162 208 183 238 277 286 268 251 208 230 274 220 224 242 257 256 253 256 239 232 251 259 267 276
327 316 291 288 240 213 205 191 178 170 180 188 205 219 202 217 222 197 164 141 145 175 204 220 212 166 179 186 182 177 187 190 173 180 189 184 233 216 183 192 211 206 201 184 196 235 135 200 270 345 275 309 29 152 193 207 47 66 117 121 101 166 181 163 163 168 175 216 264 303 307 260 217 206 201 218 223 218 238 249 244 247 239 227 236 247 256 256
334 294 274 313 195 196 188 177 173 181 199 198 209 205 194 217 222 211 202 183 148 180 217 233 198 174 195 198 182 173 194 198 179 188 205 188 216 246 193 187 193 189 185 183 195 170 97 203 235 324 339 154 181 220 198 175 157 152 168 172 185 175 122 154 198 133 142 168 195 279 289 265 240 194 192 212 222 212 217 226 225 236 239 232 233 236 239 240
301 254 268 250 193 180 171 169 178 205 197 212 223 212 206 195 172 205 215 190 173 228 118 170 214 204 196 196 209 188 180 195 188 191 223 203 207 241 210 186 170 139 137 166 198 201 179 194 184 147 226 197 211 245 208 188 182 182 190 196 194 176 143 173 236 215 129 163 180 181 265 267 248 192 198 207 221 224 211 199 216 242 240 236 240 236 231 234
214 216 278 264 187 172 163 183 191 185 208 214 222 221 212 122 130 173 192 187 225 248 55 99 218 228 205 193 207 185 163 187 195 191 221 216 211 226 221 185 162 148 146 170 200 200 154 117 149 183 216 216 232 296 209 209 200 186 221 211 191 184 173 176 207 213 157 203 188 129 259 273 260 195 212 218 238 254 222 191 216 246 250 246 245 238 240 244
228 223 290 302 195 172 167 235 196 193 221 205 224 229 199 211 179 159 174 188 201 206 213 218 194 207 233 214 196 183 179 194 194 198 218 222 223 228 198 162 156 153 155 173 197 192 106 121 173 240 305 309 315 335 19 86 120 221 239 198 165 203 203 174 186 182 160 199 194 134 244 263 274 248 247 256 265 272 253 220 218 232 255 265 261 249 237 242
265 237 278 291 228 189 183 214 198 209 221 211 228 221 210 241 200 166 173 186 193 194 208 221 202 197 227 210 164 199 205 209 202 207 214 218 237 232 171 166 169 166 176 185 180 176 176 185 173 163 290 322 324 318 326 273 202 217 229 185 181 201 182 133 128 124 187 218 195 188 245 253 268 315 297 291 285 273 262 248 229 231 253 268 277 267 227 210
294 253 232 255 243 224 226 222 206 213 215 223 234 212 214 236 189 185 192 189 199 197 205 225 210 182 194 180 214 254 223 232 232 217 215 224 259 279 184 185 181 187 206 198 176 173 173 187 177 175 209 224 223 223 225 214 187 200 219 195 196 192 176 180 199 165 229 229 192 200 243 252 288 327 303 282 285 276 264 257 249 249 256 261 272 275 255 202
243 259 216 209 224 229 257 262 234 226 213 221 232 209 211 225 200 187 196 196 202 198 212 235 188 151 212 222 235 256 250 261 266 223 226 230 238 282 218 194 188 204 214 178 160 167 149 190 191 192 206 214 223 228 193 133 143 198 213 199 198 195 185 191 199 203 219 219 209 227 235 247 261 264 264 256 232 240 255 265 269 258 257 258 255 261 270 255
231 240 205 190 203 206 240 255 236 231 215 208 217 195 207 221 222 197 194 193 194 196 218 237 176 180 207 210 221 235 236 257 275 244 239 234 239 298 256 183 196 215 212 181 166 155 120 212 205 206 214 219 229 228 181 147 173 199 204 198 197 194 184 189 210 222 212 178 246 241 221 239 250 227 221 242 227 230 248 247 246 245 246 253 258 268 288 281
223 243 215 233 267 207 220 238 232 232 228 218 217 213 216 218 215 210 195 187 193 194 206 222 202 205 209 202 206 219 219 230 249 248 242 236 240 306 329 200 218 219 205 193 199 160 162 225 211 213 223 229 239 233 182 175 193 195 196 197 195 190 187 195 215 226 214 196 244 243 188 220 245 228 212 224 208 211 225 222 231 249 256 263 273 286 293 283
205 250 275 279 279 242 254 289 256 235 233 231 227 221 226 224 217 213 190 176 203 202 201 215 211 211 215 206 200 212 214 211 225 233 234 238 230 195 241 252 238 215 185 188 212 177 183 218 206 212 224 232 243 240 196 192 209 203 199 199 193 188 193 202 216 225 220 217 243 247 220 236 247 214 204 222 210 215 233 245 261 266 258 261 270 274 270 266
199 208 227 277 277 266 289 306 310 258 236 233 232 224 232 237 229 220 194 187 204 197 196 214 219 213 213 209 204 214 217 211 221 224 216 222 227 207 220 231 192 149 180 195 231 239 211 218 199 204 225 236 244 244 220 200 214 223 215 205 199 196 201 211 218 222 221 227 243 249 253 260 255 165 190 223 211 220 248 257 255 251 249 253 259 261 258 257
227 239 137 69 266 238 256 261 248 259 243 223 225 226 234 240 237 236 222 207 211 205 195 209 220 218 212 211 212 221 223 217 225 229 216 213 222 215 220 218 125 109 188 197 227 324 216 238 215 176 222 235 241 243 229 191 217 247 240 217 210 208 211 216 217 215 211 219 236 244 251 258 244 142 178 211 185 205 231 235 241 245 242 241 243 248 253 256
225 246 228 204 250 226 231 258 239 239 245 231 217 218 230 238 235 237 244 224 216 220 212 209 216 219 217 215 212 217 224 222 226 234 226 207 240 253 214 184 142 143 170 178 170 135 175 209 222 189 215 240 246 241 176 130 186 253 240 224 218 217 217 218 220 222 215 211 222 229 236 246 239 153 192 217 187 209 231 230 234 242 240 238 237 237 242 247
Height
800 800 800 800 800 800 800 800 800 800 800 800 800 800 801 801 801 802 802 803 804 804 805 805 805 805 805 804 804 804 803 803 802 802 802 803 803 803 803 803 803 803 803 803 802 802 802 802 801 801 800 802 807 809 809 811 813 813 822 829 832 841 839 833 837 836 832 828 828 831 831 830 831 832 832 832 833 834 835 835 835 835 835 835 834 834 833 834
800 800 801 801 801 800 800 800 800 800 800 799 800 800 801 801 801 802 802 803 803 804 805 805 805 805 804 804 804 803 803 802 802 802 802 803 803 803 803 803 803 803 803 803 803 803 803 804 803 802 803 806 810 810 810 813 813 819 830 831 830 835 832 829 829 830 831 827 827 831 833 832 830 831 832 832 834 835 835 833 835 834 833 834 834 834 834 835
800 800 801 801 801 801 801 801 800 800 800 800 800 800 801 801 801 802 802 803 803 804 804 804 805 804 804 804 803 803 802 802 803 803 803 803 803 803 804 804 804 804 804 803 803 803 803 804 803 804 806 809 813 812 812 814 816 824 828 826 827 828 828 830 829 828 830 829 828 830 833 833 831 832 832 832 834 836 834 831 832 832 830 833 834 834 835 836
800 800 800 801 801 801 801 801 800 801 800 800 800 800 801 801 802 802 803 803 803 804 804 804 804 804 804 803 803 803 801 803 805 804 803 803 803 803 804 804 805 804 804 804 803 803 803 803 803 804 807 811 815 815 815 816 818 824 826 823 826 828 826 827 827 828 830 831 829 830 834 832 831 832 832 832 834 835 831 828 827 826 826 830 834 834 835 835
800 799 800 800 800 801 801 801 800 801 801 800 800 800 801 801 802 802 803 803 803 804 803 804 803 803 804 803 804 802 803 809 807 803 803 804 803 804 805 805 805 804 804 804 803 804 803 803 804 807 810 813 816 815 818 821 820 823 826 827 828 830 826 824 828 829 830 832 830 831 832 831 831 832 832 833 832 829 826 824 824 823 824 827 831 833 834 835
799 799 800 800 800 800 800 800 800 800 800 800 800 801 801 801 802 802 803 803 803 803 803 803 803 803 803 803 803 801 806 812 806 802 804 804 804 805 805 805 805 804 804 804 803 803 804 805 806 810 814 816 820 819 819 823 822 821 826 829 830 830 825 825 828 829 829 829 829 831 830 831 832 831 834 833 827 824 823 825 825 825 826 826 828 831 833 834
799 799 799 799 800 800 800 800 800 800 800 800 800 801 801 801 802 802 802 803 803 803 803 803 803 803 803 803 803 803 807 808 803 803 804 804 805 805 805 805 805 804 804 803 803 804 806 807 809 814 816 818 822 821 821 823 821 820 824 827 829 830 827 827 829 829 829 826 828 831 830 831 831 831 837 832 822 822 825 826 826 825 826 827 828 830 830 831
799 799 799 799 800 800 800 800 800 801 801 801 801 800 801 801 801 801 802 802 802 802 802 802 803 803 803 803 803 806 808 805 803 804 804 804 805 805 805 805 804 805 804 803 804 804 807 809 812 816 817 820 821 821 823 821 820 821 824 826 827 829 828 829 830 828 829 828 830 831 829 832 833 835 835 826 820 823 826 826 825 825 826 827 827 828 829 830
798 799 799 800 800 800 800 800 801 801 801 801 800 800 800 800 800 801 801 801 801 802 802 802 803 803 803 803 805 809 807 803 803 804 804 805 805 805 805 805 805 805 804 804 805 803 807 811 813 813 815 821 821 821 823 822 823 824 824 826 826 827 828 829 828 828 829 829 830 829 829 832 836 837 830 820 820 824 825 825 826 826 825 826 827 827 828 829
798 798 799 799 799 800 800 800 800 800 800 800 800 800 799 799 800 800 800 801 801 801 802 802 803 803 803 803 807 810 806 802 804 804 804 804 805 805 805 805 805 805 805 805 805 805 807 809 811 811 812 818 821 824 826 824 825 826 827 827 827 828 829 828 827 829 830 829 830 829 830 832 835 837 826 818 824 827 825 824 826 826 824 826 827 827 827 827
798 798 798 799 799 800 800 800 800 799 800 799 800 800 799 799 799 800 800 800 801 801 802 802 802 803 803 804 809 809 804 803 804 803 804 805 805 805 805 806 805 806 806 806 807 807 807 808 809 810 813 817 820 824 826 825 826 827 828 827 828 829 828 829 827 829 830 829 831 829 830 832 835 835 823 819 827 828 824 823 826 826 825 827 827 827 828 827
797 798 798 799 799 799 799 800 799 799 799 799 799 799 799 800 799 800 800 800 801 801 802 802 803 803 803 805 808 806 803 803 803 803 804 804 805 805 805 806 806 806 806 807 808 807 808 808 808 811 815 818 821 825 826 827 828 828 828 827 829 829 828 831 831 832 831 830 831 831 833 834 832 827 819 823 829 828 826 824 825 826 826 828 827 827 827 826
797 798 798 798 799 799 799 799 799 799 799 799 799 799 799 799 800 800 800 801 801 802 802 802 803 803 804 806 805 802 803 803 803 803 804 804 805 805 806 807 806 807 807 807 808 808 808 808 809 812 816 818 822 826 825 828 829 829 831 831 832 832 830 833 835 835 833 833 832 832 838 833 824 821 820 827 829 826 825 822 824 826 826 827 827 827 826 825
797 798 798 799 799 799 799 799 799 799 799 799 799 799 799 799 800 801 801 801 801 802 803 803 804 803 805 805 802 802 802 802 803 803 804 804 805 806 807 807 807 808 808 808 809 809 809 809 809 812 817 820 823 824 826 830 831 832 834 838 844 840 831 832 837 836 831 835 833 832 841 833 819 818 823 829 829 826 822 819 823 825 826 827 826 827 824 823
797 797 798 799 799 799 799 799 799 799 799 799 799 799 799 800 800 801 801 802 802 803 802 803 803 803 807 805 801 802 802 802 803 803 804 805 805 806 807 807 808 808 808 809 809 810 810 810 811 816 821 822 823 826 830 833 834 839 837 839 850 846 834 831 836 837 831 834 835 833 840 834 821 819 824 831 831 828 822 819 823 824 825 826 825 826 824 822
797 798 798 799 799 799 799 800 800 800 799 800 800 800 800 800 801 801 802 802 802 803 803 804 803 804 808 805 801 801 801 802 802 803 804 805 805 806 807 808 808 809 809 810 810 811 811 811 818 825 824 824 827 828 833 838 839 844 842 839 845 845 840 835 834 839 836 835 836 834 836 831 821 819 826 832 831 829 825 820 822 822 823 825 824 824 823 821
797 798 798 799 799 799 800 800 800 800 800 800 800 800 800 801 801 801 801 802 803 803 803 804 803 804 806 803 801 801 801 802 802 804 804 805 806 806 807 808 809 809 809 810 810 811 812 817 825 828 827 832 834 831 838 846 842 844 848 844 846 848 846 838 832 837 839 836 835 835 837 830 819 817 822 828 830 829 824 818 817 820 822 823 823 823 821 820
797 797 798 799 799 799 800 800 800 800 800 800 800 800 801 801 801 802 802 802 803 803 805 804 804 809 807 801 801 802 801 802 803 804 805 806 806 807 807 808 810 810 811 813 813 815 818 822 827 828 831 836 836 834 839 843 837 837 842 842 846 849 850 844 834 836 838 836 836 837 838 831 823 820 819 822 828 827 820 817 817 820 821 821 821 820 818 818
797 797 798 799 799 800 800 800 800 800 800 799 800 800 801 801 802 802 802 803 803 803 805 803 802 808 806 800 801 801 801 802 803 804 805 806 807 807 808 809 811 812 816 819 818 821 823 825 830 832 834 834 832 831 831 833 833 833 838 839 841 842 844 843 837 839 840 836 836 836 834 828 823 822 817 817 826 825 820 819 820 819 819 818 818 815 814 814
796 797 797 798 799 799 800 800 800 800 800 800 800 801 801 802 804 804 804 803 802 801 802 801 800 801 802 801 801 801 802 803 804 805 805 806 807 808 809 811 814 816 820 823 823 827 828 830 833 830 829 828 829 831 832 836 838 837 839 840 842 844 839 836 837 841 843 837 833 833 834 830 825 822 818 817 823 824 819 818 817 815 815 813 812 810 809 807
795 796 797 798 798 799 800 800 800 800 800 800 800 801 801 801 803 804 803 802 800 800 801 801 801 801 800 801 801 800 802 803 804 805 805 806 807 809 813 815 817 822 827 829 828 829 831 834 831 825 827 830 832 837 837 838 839 837 839 839 844 848 840 834 837 841 842 839 834 834 836 830 825 822 818 819 820 816 812 811 809 808 808 807 806 804 803 801
795 795 796 797 798 799 800 800 801 800 800 801 801 801 801 800 801 801 801 802 800 798 801 802 802 802 801 802 802 801 802 804 806 806 805 807 807 810 815 818 820 825 831 832 829 832 837 834 825 824 833 836 837 840 837 837 839 839 843 844 843 847 843 836 839 843 842 838 834 837 838 830 823 820 815 815 814 808 805 805 803 801 801 800 799 799 799 799
794 794 795 796 797 799 799 800 800 800 800 800 800 801 801 800 801 801 801 804 801 798 800 801 800 800 801 801 801 801 802 804 806 805 805 806 808 812 815 818 823 826 830 828 827 835 838 830 825 829 832 832 837 842 839 839 842 841 844 846 843 846 845 835 836 843 842 841 839 839 839 830 820 816 810 806 807 805 803 802 800 799 796 792 792 794 795 795
792 793 795 795 797 798 799 800 799 800 800 800 800 799 800 800 801 801 801 806 806 799 797 798 798 798 798 798 798 800 803 803 803 802 803 805 809 814 814 818 825 827 828 827 828 831 827 825 831 834 831 829 835 841 840 838 841 843 844 844 841 841 841 838 839 841 840 844 845 839 834 824 814 813 806 803 808 805 801 801 796 793 792 790 791 791 791 790
791 793 793 794 797 797 798 799 798 799 799 799 798 797 800 800 801 802 803 810 810 801 797 796 796 794 792 795 796 798 802 802 800 799 801 803 806 811 815 819 822 825 828 830 833 832 825 827 832 832 834 833 833 837 837 836 838 841 840 838 835 833 837 842 842 841 839 842 846 844 836 822 813 812 805 802 804 797 794 796 789 785 789 790 790 787 786 787
789 791 792 794 796 796 799 798 797 799 798 798 796 797 800 800 802 802 804 818 816 801 797 796 794 789 787 793 796 799 804 802 797 797 799 801 802 806 813 819 820 823 828 831 834 831 827 829 830 828 833 835 833 836 835 835 840 841 837 835 835 836 840 843 842 843 842 841 847 850 842 832 820 807 802 803 801 795 792 791 785 783 784 785 785 783 782 784
788 790 791 794 795 795 797 797 797 798 798 797 795 798 800 799 803 801 807 828 818 792 791 795 793 786 784 790 791 796 805 800 796 799 799 800 802 803 810 819 821 822 826 829 831 827 824 828 832 829 831 836 836 833 833 835 838 838 838 838 837 838 840 842 843 843 845 845 847 849 846 846 832 809 805 807 802 799 793 786 782 780 780 779 779 778 778 780
788 789 790 793 793 794 795 795 796 797 797 796 794 798 799 800 804 800 814 834 810 781 784 790 787 784 785 790 789 793 799 795 795 801 800 800 802 803 808 815 815 816 821 823 824 824 822 823 827 827 829 833 832 828 829 832 831 835 844 845 841 841 841 843 844 845 854 854 844 844 847 847 832 810 809 812 803 797 788 779 776 774 775 775 774 775 776 778
787 788 789 791 792 793 794 794 794 795 796 795 796 799 799 802 802 803 823 829 795 774 780 783 785 787 789 793 792 793 796 796 797 800 801 802 802 804 809 813 813 816 821 820 818 821 824 825 825 824 825 826 827 832 834 827 827 838 848 845 843 848 847 848 847 844 855 854 838 838 843 840 825 805 804 810 803 794 781 776 776 772 772 773 772 773 775 777
786 787 788 790 791 792 793 792 793 795 796 796 797 798 800 803 804 815 834 819 784 779 784 782 785 788 791 796 798 796 795 799 801 801 804 805 804 806 809 812 813 817 821 821 821 822 826 830 828 824 822 822 827 838 841 833 833 840 840 836 839 845 845 850 853 849 854 847 832 835 836 834 830 810 799 798 791 785 777 773 774 769 767 768 769 773 773 775
786 786 787 789 789 790 791 791 792 794 797 797 798 801 802 805 810 821 824 801 781 784 785 786 789 789 790 791 794 798 797 801 802 801 804 807 808 809 811 814 815 821 825 823 822 825 826 826 825 823 823 825 826 834 841 842 842 837 831 832 838 843 846 850 854 855 854 841 834 846 844 839 835 810 794 791 783 782 781 774 770 765 763 764 767 772 773 774
786 786 786 787 787 788 789 789 790 793 796 797 801 804 803 810 817 813 802 788 782 781 777 782 787 788 788 786 789 795 796 800 802 800 803 807 810 809 808 809 812 821 826 822 823 826 822 820 822 822 825 824 820 829 841 843 842 836 832 836 842 850 853 849 854 863 859 842 842 855 848 840 830 801 790 790 779 777 781 777 773 768 766 764 765 770 773 774
785 785 785 786 786 787 787 789 790 793 795 796 801 805 807 813 810 797 789 782 777 776 773 776 781 785 788 788 791 794 794 798 802 802 802 805 810 809 806 805 806 810 814 818 825 827 822 820 821 820 820 819 814 821 832 834 838 836 831 834 840 852 856 850 858 868 855 839 846 856 846 835 820 794 783 780 770 769 773 774 774 772 770 768 767 771 772 774
784 784 784 784 784 785 786 788 789 791 795 797 800 806 814 814 799 785 781 774 771 776 778 778 783 788 788 786 789 790 792 798 801 801 803 806 812 812 808 807 807 806 809 817 823 825 822 815 812 812 811 811 809 809 812 820 832 833 828 830 832 835 837 836 842 842 835 835 845 851 840 818 800 782 776 774 771 772 772 772 775 773 774 774 773 772 769 769
782 782 782 782 782 783 785 786 788 791 794 797 802 808 811 806 796 789 781 771 772 779 782 784 787 792 791 789 790 788 787 793 799 802 804 805 805 805 802 801 804 805 807 813 816 821 822 809 803 807 806 805 806 805 807 814 827 833 832 831 828 822 819 828 843 844 843 844 841 838 825 803 787 776 773 775 772 768 769 773 773 768 770 775 772 767 764 764
781 780 780 780 779 781 783 784 786 789 791 796 806 807 799 789 786 788 780 771 774 779 784 788 787 792 795 793 794 792 787 791 798 802 804 804 800 798 796 792 794 797 796 800 807 813 816 809 808 812 808 808 809 806 808 810 816 830 834 827 825 824 817 825 848 860 860 846 827 821 811 795 788 776 765 768 765 761 765 768 766 763 767 771 766 761 760 761
779 779 778 777 777 779 781 783 786 788 789 796 800 796 790 783 777 779 776 771 775 776 779 784 783 786 791 792 793 793 789 791 798 800 800 804 797 791 792 787 785 789 784 786 795 799 801 804 811 814 809 813 817 811 810 812 813 823 827 820 822 827 822 823 834 846 857 848 824 816 809 796 792 779 764 767 767 761 761 762 761 762 765 765 759 756 757 759
778 778 775 773 774 777 779 782 785 787 790 796 795 788 788 784 772 771 772 771 774 774 774 778 777 779 785 788 788 789 788 789 796 798 796 801 791 777 782 784 781 783 779 780 789 792 794 799 810 821 815 813 817 812 811 817 817 816 816 815 818 821 823 829 832 829 838 841 822 812 812 803 793 779 764 762 761 755 753 753 755 758 760 759 754 752 754 758
778 778 774 768 770 773 776 780 783 786 789 792 792 786 784 779 769 768 769 767 770 771 771 771 772 776 782 781 781 786 787 786 793 795 790 793 786 770 771 774 774 779 779 782 788 791 794 796 805 821 821 814 815 812 810 815 819 819 817 818 818 818 818 824 829 823 821 827 819 807 800 787 780 774 761 754 753 748 746 746 749 751 752 752 751 749 751 755
779 780 774 767 768 770 774 779 781 785 785 783 782 778 775 774 771 771 769 767 769 771 770 768 768 773 777 778 780 782 784 784 788 789 783 783 780 770 767 767 769 776 779 782 787 789 794 795 801 817 824 817 811 806 802 804 810 814 814 817 819 820 822 821 824 824 818 818 822 817 796 769 763 765 755 748 749 745 743 744 746 747 745 747 749 747 749 754
780 782 774 766 768 770 773 778 779 781 781 777 775 772 770 770 770 772 773 773 774 773 772 772 771 770 771 775 777 778 781 783 785 786 781 778 775 766 762 760 763 773 782 788 790 787 790 794 800 815 820 810 801 800 802 800 799 800 801 803 804 808 816 818 820 825 823 817 816 819 800 762 750 757 751 745 746 744 745 746 745 744 743 743 747 748 750 753
780 780 772 767 769 769 772 775 774 775 777 774 769 767 767 767 767 770 773 776 778 776 775 775 772 771 770 769 769 772 777 779 782 783 777 773 768 760 756 757 760 766 774 781 781 776 781 789 797 806 808 802 800 806 812 807 799 800 801 798 796 800 803 803 806 814 822 819 814 822 810 765 745 756 753 746 750 751 752 751 745 743 744 744 745 748 753 754
779 775 769 767 769 768 770 772 770 770 771 767 764 763 764 766 766 767 770 776 778 777 775 772 769 769 768 766 766 770 771 772 775 776 771 768 763 756 756 759 761 763 767 773 776 775 781 788 792 798 799 799 801 804 809 810 804 801 800 799 799 797 794 795 799 804 810 809 807 819 812 767 745 759 759 754 758 756 755 754 746 740 743 746 745 746 751 753
775 773 769 769 769 767 766 765 765 766 766 764 763 764 764 764 765 765 767 771 773 771 771 768 766 768 767 765 766 768 767 766 768 767 766 765 760 754 755 757 759 761 760 762 766 769 779 785 788 796 800 800 801 802 803 805 804 798 794 797 797 792 796 802 804 805 804 795 792 801 793 760 749 759 757 754 756 751 750 754 753 746 742 743 743 745 750 751
774 773 770 767 767 767 763 759 759 762 764 764 764 764 765 764 762 762 763 766 766 766 767 765 763 765 767 766 766 766 765 762 762 763 763 762 759 756 756 755 757 756 752 752 753 756 768 774 776 787 794 793 791 788 783 787 798 799 792 792 793 791 796 797 798 805 800 786 785 787 771 753 752 754 749 749 750 746 743 747 753 754 748 744 744 744 744 746
775 773 769 767 767 766 762 758 758 761 761 762 762 761 762 762 759 758 760 763 764 763 763 761 762 767 769 768 768 769 767 763 762 764 764 760 755 754 755 755 756 753 751 753 753 756 762 764 763 766 770 769 764 761 762 769 784 790 785 786 790 791 792 792 795 798 789 782 784 774 758 754 753 750 746 745 744 742 740 741 746 748 746 746 746 743 741 744
774 769 765 765 765 764 763 760 759 760 758 758 758 754 755 758 757 757 758 759 759 761 761 760 761 765 766 767 771 774 772 769 765 763 762 758 753 753 756 757 756 752 751 754 755 758 761 761 759 756 754 751 745 748 758 762 766 772 775 780 786 788 790 793 791 780 775 783 777 757 755 760 751 744 745 742 741 741 739 739 740 740 741 743 744 741 739 741
770 764 760 760 761 761 760 758 757 757 756 756 754 750 750 753 755 756 756 756 756 757 759 760 759 759 758 760 767 771 771 772 770 763 758 756 755 755 755 757 756 751 753 757 756 757 759 757 755 754 754 749 742 747 757 757 755 760 765 770 776 783 787 788 781 767 766 775 761 742 752 754 738 737 742 737 737 736 733 734 737 739 741 741 739 737 736 737
767 764 761 760 760 758 756 756 756 756 755 755 754 751 749 748 749 749 751 754 756 755 756 758 757 755 754 755 760 765 765 766 767 762 757 755 755 755 754 753 752 751 754 756 755 755 756 754 751 751 754 751 745 748 754 755 755 758 761 763 767 774 778 775 767 758 760 765 752 743 751 744 728 731 736 733 733 733 733 736 737 738 738 736 735 735 735 737
762 762 761 761 762 760 758 758 759 757 755 753 752 749 747 746 745 744 745 748 753 752 752 753 750 749 751 753 755 756 754 753 753 751 752 755 754 753 750 746 745 752 757 756 754 755 755 752 749 750 755 754 746 745 751 757 758 757 760 763 763 766 767 762 756 754 762 765 753 750 755 742 725 727 730 731 734 734 736 736 733 733 733 733 734 734 734 736
757 758 759 763 763 759 757 757 757 758 756 753 751 748 746 745 743 742 741 739 741 744 745 746 744 744 747 749 750 749 746 746 746 742 742 746 746 745 746 745 745 751 758 757 755 755 757 756 753 754 760 756 744 742 751 759 763 762 762 760 758 755 752 750 751 753 757 758 754 759 758 737 723 726 728 729 733 733 732 732 731 731 731 732 734 734 734 735
756 757 759 763 762 757 756 756 755 756 752 748 747 745 743 742 741 742 742 737 735 737 739 739 740 741 743 744 744 740 737 737 737 736 738 743 744 743 746 746 745 747 753 758 758 757 758 759 758 760 763 755 744 745 752 760 766 762 749 740 739 740 741 745 750 748 745 746 749 751 739 719 718 727 728 729 733 731 727 727 727 728 728 731 733 733 733 732